| time (UTC) | temp F | wind direction | speed knots | gust knots | rain 1hr in | rain 24hr in | rain mn in | humidity % | barometer mb |
| 20260510043032 | 51 | 137 | 9.6 | 23.5 | 0.00 | 0.00 | 0.00 | 80 | 1002.1 |
| 20260510042027 | 52 | 143 | 8.7 | 20.0 | 0.00 | 0.00 | 0.00 | 81 | 1001.9 |
| 20260510041022 | 52 | 138 | 8.7 | 20.9 | 0.00 | 0.00 | 0.00 | 81 | 1001.6 |
| 20260510040017 | 52 | 131 | 8.7 | 20.0 | 0.00 | 0.00 | 0.00 | 82 | 1001.4 |
| 20260510035032 | 52 | 136 | 10.4 | 22.6 | 0.00 | 0.00 | 0.00 | 82 | 1001.2 |
| 20260510034027 | 53 | 131 | 12.2 | 24.3 | 0.00 | 0.00 | 0.00 | 81 | 1000.9 |
| 20260510033022 | 54 | 139 | 10.4 | 24.3 | 0.00 | 0.00 | 0.00 | 80 | 1000.6 |
| 20260510032017 | 55 | 124 | 11.3 | 23.5 | 0.00 | 0.00 | 0.00 | 78 | 1000.4 |
| 20260510031032 | 58 | 141 | 11.3 | 19.1 | 0.00 | 0.00 | 0.00 | 76 | 999.7 |
| 20260510030027 | 61 | 157 | 9.6 | 19.1 | 0.00 | 0.00 | 0.00 | 70 | 999.5 |
| 20260510025042 | 65 | 162 | 7.0 | 13.9 | 0.00 | 0.00 | 0.00 | 63 | 999.4 |
| 20260510024037 | 65 | 174 | 6.1 | 9.6 | 0.00 | 0.00 | 0.00 | 59 | 999.0 |
| 20260510023032 | 64 | 169 | 7.0 | 15.6 | 0.00 | 0.00 | 0.00 | 57 | 998.6 |
| 20260510022027 | 65 | 337 | 5.2 | 7.8 | 0.00 | 0.00 | 0.00 | 59 | 998.0 |
| 20260510021022 | 64 | 323 | 7.0 | 9.6 | 0.00 | 0.00 | 0.00 | 62 | 997.9 |
| 20260510020037 | 63 | 335 | 7.0 | 11.3 | 0.00 | 0.00 | 0.00 | 62 | 997.8 |
| 20260510015033 | 63 | 322 | 7.0 | 12.2 | 0.00 | 0.00 | 0.00 | 62 | 997.7 |
| 20260510014048 | 63 | 332 | 7.8 | 12.2 | 0.00 | 0.00 | 0.00 | 62 | 997.7 |
| 20260510013043 | 62 | 341 | 7.0 | 13.0 | 0.00 | 0.00 | 0.00 | 63 | 997.5 |
| 20260510012018 | 62 | 335 | 8.7 | 14.8 | 0.00 | 0.00 | 0.00 | 64 | 997.7 |
| 20260510011053 | 61 | 350 | 11.3 | 15.6 | 0.00 | 0.00 | 0.00 | 64 | 997.7 |
| 20260510010028 | 61 | 335 | 7.8 | 13.9 | 0.00 | 0.00 | 0.00 | 65 | 997.7 |
| 20260510005023 | 61 | 353 | 10.4 | 16.5 | 0.00 | 0.00 | 0.00 | 67 | 997.5 |
| 20260510004059 | 61 | 350 | 9.6 | 14.8 | 0.00 | 0.00 | 0.00 | 66 | 997.7 |
| 20260510003034 | 60 | 326 | 10.4 | 16.5 | 0.00 | 0.00 | 0.00 | 66 | 997.7 |
| 20260510002029 | 60 | 327 | 13.0 | 22.6 | 0.00 | 0.00 | 0.00 | 69 | 997.5 |
| 20260510001024 | 60 | 340 | 13.9 | 21.7 | 0.00 | 0.00 | 0.00 | 68 | 997.6 |
| 20260510000019 | 60 | 329 | 11.3 | 19.1 | 0.00 | 0.00 | 0.00 | 68 | 997.8 |
| 20260509235035 | 60 | 343 | 12.2 | 17.4 | 0.00 | 0.00 | 0.00 | 68 | 997.8 |
| 20260509234029 | 59 | 328 | 12.2 | 22.6 | 0.00 | 0.00 | 0.00 | 69 | 997.7 |
| 20260509233025 | 59 | 337 | 13.9 | 24.3 | 0.00 | 0.00 | 0.00 | 69 | 997.8 |
| 20260509232020 | 59 | 340 | 13.0 | 21.7 | 0.00 | 0.00 | 0.00 | 69 | 997.7 |
| 20260509231035 | 59 | 332 | 14.8 | 22.6 | 0.00 | 0.00 | 0.00 | 69 | 997.8 |
| 20260509230030 | 59 | 342 | 14.8 | 24.3 | 0.00 | 0.00 | 0.00 | 69 | 998.0 |
| 20260509225026 | 58 | 329 | 13.9 | 20.9 | 0.00 | 0.00 | 0.00 | 69 | 997.8 |
| 20260509224040 | 59 | 329 | 13.9 | 21.7 | 0.00 | 0.00 | 0.00 | 68 | 997.9 |
| 20260509223016 | 59 | 332 | 13.0 | 26.9 | 0.00 | 0.00 | 0.00 | 67 | 997.9 |
| 20260509222035 | 58 | 330 | 12.2 | 20.0 | 0.00 | 0.00 | 0.00 | 68 | 998.0 |
| 20260509221026 | 58 | 322 | 13.9 | 21.7 | 0.00 | 0.00 | 0.00 | 69 | 997.9 |
| 20260509220021 | 58 | 324 | 10.4 | 17.4 | 0.00 | 0.00 | 0.00 | 71 | 998.1 |
| 20260509215016 | 57 | 336 | 12.2 | 21.7 | 0.00 | 0.00 | 0.00 | 71 | 997.9 |
| 20260509214032 | 57 | 334 | 14.8 | 21.7 | 0.00 | 0.00 | 0.00 | 71 | 998.0 |
| 20260509213027 | 57 | 327 | 11.3 | 20.9 | 0.00 | 0.00 | 0.00 | 73 | 997.9 |
| 20260509212022 | 56 | 335 | 11.3 | 15.6 | 0.00 | 0.00 | 0.00 | 73 | 998.1 |
| 20260509211017 | 56 | 317 | 9.6 | 15.6 | 0.00 | 0.00 | 0.00 | 74 | 997.8 |
| 20260509210032 | 55 | 334 | 14.8 | 21.7 | 0.00 | 0.00 | 0.00 | 74 | 997.8 |
| 20260509205047 | 55 | 331 | 13.0 | 20.0 | 0.00 | 0.00 | 0.00 | 75 | 997.9 |
| 20260509204022 | 54 | 334 | 7.8 | 14.8 | 0.00 | 0.00 | 0.00 | 76 | 997.8 |
| 20260509203018 | 54 | 348 | 9.6 | 15.6 | 0.00 | 0.00 | 0.00 | 76 | 997.9 |
| 20260509202033 | 54 | 336 | 11.3 | 18.2 | 0.00 | 0.00 | 0.00 | 76 | 997.8 |
| 20260509201028 | 53 | 337 | 9.6 | 16.5 | 0.00 | 0.00 | 0.00 | 77 | 997.6 |
| 20260509200023 | 53 | 337 | 11.3 | 20.0 | 0.00 | 0.00 | 0.00 | 77 | 997.7 |
| 20260509195038 | 52 | 342 | 8.7 | 13.9 | 0.00 | 0.00 | 0.00 | 78 | 997.9 |
| 20260509194033 | 52 | 336 | 8.7 | 16.5 | 0.00 | 0.00 | 0.00 | 76 | 997.8 |
| 20260509193028 | 53 | 336 | 11.3 | 17.4 | 0.00 | 0.00 | 0.00 | 76 | 997.6 |
| 20260509192023 | 52 | 335 | 13.0 | 20.9 | 0.00 | 0.00 | 0.00 | 76 | 997.3 |
| 20260509191018 | 52 | 340 | 10.4 | 14.8 | 0.00 | 0.00 | 0.00 | 76 | 997.6 |
| 20260509190035 | 52 | 335 | 7.8 | 13.0 | 0.00 | 0.00 | 0.00 | 77 | 997.8 |
| 20260509185049 | 52 | 339 | 8.7 | 14.8 | 0.00 | 0.00 | 0.00 | 77 | 997.4 |
| 20260509184024 | 52 | 346 | 8.7 | 20.0 | 0.00 | 0.00 | 0.00 | 78 | 997.3 |
| 20260509183039 | 52 | 331 | 7.8 | 12.2 | 0.00 | 0.00 | 0.00 | 79 | 997.2 |
| 20260509182034 | 52 | 355 | 8.7 | 15.6 | 0.00 | 0.00 | 0.00 | 79 | 997.3 |
| 20260509181029 | 52 | 343 | 7.8 | 13.0 | 0.00 | 0.00 | 0.00 | 78 | 997.3 |
| 20260509180025 | 52 | 336 | 11.3 | 20.0 | 0.00 | 0.00 | 0.00 | 78 | 997.4 |
| 20260509175020 | 52 | 343 | 13.0 | 18.2 | 0.00 | 0.00 | 0.00 | 78 | 997.3 |
| 20260509174036 | 52 | 344 | 12.2 | 20.0 | 0.00 | 0.00 | 0.00 | 77 | 997.2 |
| 20260509173030 | 52 | 348 | 12.2 | 21.7 | 0.00 | 0.00 | 0.00 | 76 | 997.1 |
| 20260509172025 | 52 | 349 | 12.2 | 19.1 | 0.00 | 0.00 | 0.00 | 76 | 997.3 |
| 20260509171021 | 52 | 333 | 10.4 | 16.5 | 0.00 | 0.00 | 0.00 | 77 | 997.4 |
| 20260509170056 | 52 | 340 | 11.3 | 19.1 | 0.00 | 0.00 | 0.00 | 76 | 997.1 |
| 20260509165031 | 52 | 351 | 13.0 | 21.7 | 0.00 | 0.00 | 0.00 | 77 | 997.3 |
| 20260509164026 | 52 | 340 | 8.7 | 13.9 | 0.00 | 0.00 | 0.00 | 77 | 997.3 |
| 20260509163021 | 52 | 355 | 9.6 | 16.5 | 0.00 | 0.00 | 0.00 | 76 | 997.2 |
| 20260509162016 | 52 | 348 | 11.3 | 18.2 | 0.00 | 0.00 | 0.00 | 74 | 996.9 |
| 20260509161051 | 52 | 342 | 10.4 | 16.5 | 0.00 | 0.00 | 0.00 | 74 | 997.0 |
| 20260509160026 | 52 | 344 | 10.4 | 16.5 | 0.00 | 0.00 | 0.00 | 74 | 996.9 |
| 20260509155021 | 52 | 347 | 10.4 | 15.6 | 0.00 | 0.00 | 0.00 | 74 | 996.9 |
| 20260509154016 | 52 | 331 | 11.3 | 19.1 | 0.00 | 0.00 | 0.00 | 75 | 997.0 |
| 20260509153051 | 53 | 336 | 11.3 | 19.1 | 0.00 | 0.00 | 0.00 | 75 | 997.1 |
| 20260509152026 | 53 | 335 | 17.4 | 26.1 | 0.00 | 0.00 | 0.00 | 75 | 997.1 |
| 20260509151021 | 53 | 341 | 14.8 | 22.6 | 0.00 | 0.00 | 0.00 | 76 | 997.2 |
| 20260509150016 | 52 | 341 | 11.3 | 16.5 | 0.00 | 0.00 | 0.00 | 76 | 997.2 |
| 20260509145032 | 52 | 341 | 9.6 | 16.5 | 0.00 | 0.00 | 0.00 | 76 | 997.3 |
| 20260509144027 | 52 | 341 | 11.3 | 18.2 | 0.00 | 0.00 | 0.00 | 75 | 997.4 |
| 20260509143022 | 52 | 356 | 13.9 | 21.7 | 0.00 | 0.00 | 0.00 | 76 | 997.4 |
| 20260509142057 | 52 | 352 | 12.2 | 20.0 | 0.00 | 0.00 | 0.00 | 77 | 997.8 |
| 20260509141032 | 52 | 345 | 11.3 | 17.4 | 0.00 | 0.00 | 0.00 | 78 | 997.9 |
| 20260509140027 | 53 | 335 | 10.4 | 20.0 | 0.00 | 0.00 | 0.00 | 79 | 997.7 |
| 20260509135023 | 52 | 346 | 13.0 | 21.7 | 0.00 | 0.00 | 0.00 | 80 | 997.9 |
| 20260509134017 | 52 | 341 | 12.2 | 21.7 | 0.00 | 0.00 | 0.00 | 81 | 997.8 |
| 20260509133032 | 52 | 331 | 12.2 | 22.6 | 0.00 | 0.00 | 0.00 | 81 | 997.8 |
| 20260509132027 | 53 | 325 | 12.2 | 18.2 | 0.00 | 0.00 | 0.00 | 80 | 997.9 |
| 20260509131023 | 52 | 324 | 13.0 | 25.2 | 0.00 | 0.00 | 0.00 | 81 | 997.6 |
| 20260509130018 | 53 | 324 | 13.9 | 21.7 | 0.00 | 0.00 | 0.00 | 81 | 997.6 |
| 20260509125033 | 53 | 329 | 13.0 | 21.7 | 0.00 | 0.00 | 0.00 | 81 | 997.6 |
| 20260509124028 | 53 | 329 | 10.4 | 17.4 | 0.00 | 0.00 | 0.00 | 80 | 997.7 |
| 20260509123023 | 53 | 338 | 13.0 | 18.2 | 0.00 | 0.00 | 0.00 | 80 | 997.5 |
| 20260509122038 | 53 | 337 | 14.8 | 26.1 | 0.00 | 0.00 | 0.00 | 79 | 997.3 |
| 20260509121034 | 53 | 329 | 13.0 | 20.0 | 0.00 | 0.00 | 0.00 | 78 | 997.5 |
| 20260509120029 | 53 | 318 | 13.9 | 27.8 | 0.00 | 0.00 | 0.00 | 78 | 997.9 |
| 20260509115024 | 53 | 305 | 18.2 | 31.3 | 0.00 | 0.00 | 0.00 | 77 | 997.9 |
| 20260509114019 | 53 | 318 | 13.0 | 22.6 | 0.00 | 0.00 | 0.00 | 77 | 997.9 |
| 20260509113034 | 53 | 319 | 13.9 | 25.2 | 0.00 | 0.00 | 0.00 | 77 | 997.8 |
| 20260509112029 | 53 | 315 | 15.6 | 25.2 | 0.00 | 0.00 | 0.00 | 76 | 998.0 |
| 20260509111024 | 53 | 325 | 13.9 | 21.7 | 0.00 | 0.00 | 0.00 | 75 | 998.0 |
| 20260509110019 | 53 | 319 | 12.2 | 20.0 | 0.00 | 0.00 | 0.00 | 74 | 998.1 |
| 20260509105035 | 53 | 327 | 11.3 | 18.2 | 0.00 | 0.00 | 0.00 | 72 | 998.0 |
| 20260509104030 | 54 | 320 | 13.9 | 31.3 | 0.00 | 0.00 | 0.00 | 71 | 998.2 |
| 20260509103025 | 53 | 325 | 12.2 | 24.3 | 0.00 | 0.00 | 0.00 | 73 | 998.2 |
| 20260509102020 | 54 | 326 | 12.2 | 25.2 | 0.00 | 0.00 | 0.00 | 73 | 998.1 |
| 20260509101035 | 54 | 315 | 14.8 | 24.3 | 0.00 | 0.00 | 0.00 | 71 | 998.3 |
| 20260509100030 | 54 | 306 | 11.3 | 23.5 | 0.00 | 0.00 | 0.00 | 70 | 998.2 |
| 20260509095025 | 54 | 309 | 14.8 | 30.4 | 0.00 | 0.00 | 0.00 | 72 | 998.1 |
| 20260509094020 | 54 | 317 | 13.0 | 25.2 | 0.00 | 0.01 | 0.00 | 74 | 997.8 |
| 20260509093035 | 54 | 310 | 14.8 | 25.2 | 0.00 | 0.01 | 0.00 | 74 | 997.9 |
| 20260509092030 | 54 | 312 | 15.6 | 27.8 | 0.00 | 0.03 | 0.00 | 75 | 998.0 |
| 20260509091025 | 54 | 318 | 12.2 | 20.0 | 0.00 | 0.07 | 0.00 | 76 | 998.0 |
| 20260509090100 | 54 | 337 | 10.4 | 14.8 | 0.00 | 0.12 | 0.00 | 75 | 997.9 |
| 20260509085035 | 54 | 322 | 13.0 | 22.6 | 0.00 | 0.27 | 0.00 | 74 | 997.8 |
| 20260509084030 | 54 | 326 | 11.3 | 22.6 | 0.00 | 0.37 | 0.00 | 74 | 997.5 |
| 20260509083025 | 55 | 313 | 15.6 | 28.7 | 0.00 | 0.46 | 0.00 | 73 | 997.3 |
| 20260509082020 | 55 | 308 | 18.2 | 29.5 | 0.00 | 0.49 | 0.00 | 74 | 997.5 |
| 20260509081035 | 55 | 312 | 18.2 | 29.5 | 0.00 | 0.54 | 0.00 | 75 | 997.5 |
| 20260509080030 | 55 | 313 | 19.1 | 28.7 | 0.00 | 0.55 | 0.00 | 75 | 997.3 |
| 20260509075025 | 55 | 316 | 20.0 | 34.8 | 0.00 | 0.56 | 0.00 | 75 | 997.1 |
| 20260509074020 | 55 | 312 | 20.9 | 35.6 | 0.00 | 0.57 | 0.00 | 75 | 996.9 |
| 20260509073055 | 55 | 307 | 17.4 | 28.7 | 0.00 | 0.60 | 0.00 | 74 | 997.1 |
| 20260509072030 | 55 | 306 | 18.2 | 26.1 | 0.00 | 0.60 | 0.00 | 76 | 997.4 |
| 20260509071045 | 55 | 311 | 20.0 | 29.5 | 0.00 | 0.62 | 0.00 | 75 | 997.3 |
| 20260509070021 | 55 | 300 | 21.7 | 31.3 | 0.00 | 0.65 | 0.00 | 76 | 997.5 |
| 20260509065016 | 55 | 301 | 19.1 | 35.6 | 0.00 | 0.69 | 0.00 | 78 | 997.4 |
| 20260509064031 | 55 | 307 | 16.5 | 26.9 | 0.00 | 0.73 | 0.00 | 80 | 997.2 |
| 20260509063026 | 55 | 314 | 16.5 | 28.7 | 0.00 | 0.75 | 0.00 | 80 | 997.0 |
| 20260509062021 | 55 | 311 | 15.6 | 26.1 | 0.00 | 0.75 | 0.00 | 81 | 997.1 |
| 20260509061017 | 54 | 318 | 16.5 | 26.1 | 0.00 | 0.75 | 0.00 | 83 | 997.2 |
| 20260509060032 | 54 | 327 | 13.0 | 22.6 | 0.00 | 0.77 | 0.00 | 83 | 997.2 |
| 20260509055026 | 55 | 321 | 19.1 | 28.7 | 0.00 | 0.77 | 0.00 | 83 | 997.1 |
| 20260509054021 | 55 | 322 | 13.0 | 20.0 | 0.00 | 0.78 | 0.00 | 82 | 997.1 |
| 20260509053036 | 55 | 324 | 13.9 | 24.3 | 0.00 | 0.78 | 0.00 | 82 | 997.1 |
| 20260509052030 | 55 | 336 | 13.9 | 22.6 | 0.00 | 0.78 | 0.00 | 82 | 997.2 |
| 20260509051025 | 55 | 329 | 13.0 | 21.7 | 0.00 | 0.78 | 0.00 | 82 | 997.2 |
| 20260509050019 | 55 | 333 | 13.0 | 20.9 | 0.00 | 0.78 | 0.00 | 82 | 997.0 |
| 20260509045034 | 56 | 334 | 13.9 | 23.5 | 0.00 | 0.78 | 0.00 | 80 | 996.9 |
| 20260509044028 | 56 | 318 | 15.6 | 24.3 | 0.00 | 0.78 | 0.00 | 80 | 997.1 |